Quillayute, WA
on Monday, December 24, 2012

Monday
Previous Day Next Day
Daily Summary
 ActualAverageRecord
Temperature
Mean Temperature °F 40°F  
Max Temperature 44°F 46°F 55°F (2005)
Min Temperature 32°F 35°F 18°F (1983)
Degree Days
Heating Degree Days 27 25  
Month to date heating degree days 592  
Since 1 July heating degree days 2306  
Cooling Degree Days 0 0  
Month to date cooling degree days 0  
Year to date cooling degree days 19  
Moisture
Dew Point 37°F   
Average Humidity 96    
Maximum Humidity 100    
Minimum Humidity 89    
Precipitation
Precipitation 0.06 in 0.41 in 1.29 in (1979)
Month to date precipitation 10.16  
Year to date precipitation 96.71  
Wind
Wind Speed 4 mph   
Max Wind Speed 10 mph   
Max Gust Speed 15 mph   
Visibility 4 miles   
Events Fog , Rain   

Key: T is trace of precipitation, MM is missing value
Source: NWS Daily Summary
Time(PST)TemperatureDew PointHumidity Pressure Visibility Wind DirectionWind SpeedGust SpeedPrecipitationEvents Conditions
12:08 AM 37.4°F 37.4°F 100% 29.82 in 5.0 miles Calm Calm - 0.00 in Rain Light Rain
12:53 AM 37.9°F 37.9°F 100% 29.84 in 5.0 miles East 5.8 mph - 0.01 in   Overcast
1:53 AM 37.9°F 37.0°F 97% 29.87 in 7.0 miles ENE 4.6 mph - N/A   Overcast
2:09 AM 37.4°F 37.4°F 100% 29.87 in 7.0 miles East 4.6 mph - N/A   Mostly Cloudy
2:53 AM 37.0°F 37.0°F 100% 29.90 in 7.0 miles East 3.5 mph - N/A   Mostly Cloudy
3:23 AM 37.4°F 35.6°F 93% 29.91 in 7.0 miles NE 3.5 mph - N/A   Mostly Cloudy
3:46 AM 35.6°F 35.6°F 100% 29.92 in 7.0 miles NE 3.5 mph - N/A   Overcast
3:53 AM 36.0°F 36.0°F 100% 29.93 in 7.0 miles ENE 3.5 mph - N/A   Overcast
4:11 AM 37.4°F 35.6°F 93% 29.94 in 7.0 miles NE 3.5 mph - N/A   Overcast
4:53 AM 36.0°F 36.0°F 100% 29.96 in 7.0 miles Calm Calm - N/A   Mostly Cloudy
5:53 AM 35.1°F 35.1°F 100% 29.99 in 4.0 miles East 3.5 mph - N/A   Clear
6:08 AM 33.8°F 33.8°F 100% 29.99 in 1.8 miles Calm Calm - N/A   Partly Cloudy
6:18 AM 35.6°F 33.8°F 93% 29.99 in 3.0 miles East 4.6 mph - N/A   Mostly Cloudy
6:35 AM 33.8°F 33.8°F 100% 30.00 in 3.0 miles Calm Calm - N/A   Mostly Cloudy
6:38 AM 33.8°F 33.8°F 100% 30.00 in 1.8 miles ESE 3.5 mph - N/A   Mostly Cloudy
6:41 AM 33.8°F 33.8°F 100% 30.00 in 0.8 miles East 3.5 mph - N/A   Mostly Cloudy
6:46 AM 35.6°F 35.6°F 100% 30.01 in 0.2 miles Calm Calm - N/A Fog Fog
6:53 AM 33.1°F 33.1°F 100% 30.02 in 0.2 miles Calm Calm - N/A Fog Fog
7:05 AM 32.0°F 32.0°F 100% 30.01 in 0.2 miles Calm Calm - N/A Fog Fog
7:16 AM 32.0°F 30.2°F 93% 30.02 in 0.8 miles Calm Calm - N/A   Mostly Cloudy
7:19 AM 32.0°F 32.0°F 100% 30.02 in 1.8 miles Calm Calm - N/A   Mostly Cloudy
7:22 AM 32.0°F 32.0°F 100% 30.02 in 3.0 miles Calm Calm - N/A   Mostly Cloudy
7:53 AM 33.1°F 32.0°F 96% 30.04 in 4.0 miles Calm Calm - N/A   Overcast
7:57 AM 33.8°F 33.8°F 100% 30.03 in 1.5 miles East 3.5 mph - N/A   Overcast
8:02 AM 33.8°F 33.8°F 100% 30.03 in 0.8 miles East 4.6 mph - N/A   Overcast
8:08 AM 33.8°F 33.8°F 100% 30.03 in 1.8 miles East 6.9 mph - N/A   Overcast
8:10 AM 33.8°F 33.8°F 100% 30.03 in 3.0 miles East 6.9 mph - N/A   Overcast
8:53 AM 33.1°F 33.1°F 100% 30.07 in 5.0 miles Calm Calm - N/A   Mostly Cloudy
9:53 AM 37.0°F 36.0°F 96% 30.10 in 4.0 miles East 3.5 mph - 0.00 in Rain Light Rain
10:53 AM 39.9°F 39.0°F 97% 30.11 in 5.0 miles Calm Calm - 0.00 in   Overcast
11:17 AM 39.2°F 39.2°F 100% 30.11 in 2.5 miles Calm Calm - 0.00 in Rain Light Rain
11:25 AM 41.0°F 39.2°F 93% 30.11 in 5.0 miles East 3.5 mph - 0.00 in Rain Light Rain
11:53 AM 42.1°F 41.0°F 96% 30.11 in 6.0 miles Calm Calm - 0.00 in   Overcast
12:22 PM 42.8°F 41.0°F 93% 30.11 in 2.5 miles SSW 3.5 mph - 0.00 in Rain Light Rain
12:30 PM 42.8°F 41.0°F 93% 30.12 in 1.8 miles Calm Calm - 0.00 in Rain Light Rain
12:47 PM 42.8°F 41.0°F 93% 30.12 in 2.0 miles Calm Calm - 0.01 in Rain Light Rain
12:53 PM 42.1°F 41.0°F 96% 30.12 in 2.5 miles SE 3.5 mph - 0.01 in Rain Light Rain
1:02 PM 42.8°F 41.0°F 93% 30.11 in 3.0 miles SE 3.5 mph - 0.00 in Rain Light Rain
1:08 PM 42.8°F 41.0°F 93% 30.11 in 1.8 miles SE 4.6 mph - 0.00 in Rain Light Rain
1:23 PM 42.8°F 42.8°F 100% 30.11 in 3.0 miles SSE 5.8 mph - 0.01 in Rain Light Rain
1:53 PM 44.1°F 42.1°F 93% 30.12 in 5.0 miles SE 4.6 mph - 0.01 in   Overcast
2:00 PM 44.6°F 42.8°F 93% 30.11 in 5.0 miles SE 5.8 mph - N/A   Mostly Cloudy
2:20 PM 42.8°F 42.8°F 100% 30.11 in 5.0 miles SE 4.6 mph - N/A   Mostly Cloudy
2:39 PM 42.8°F 41.0°F 93% 30.11 in 5.0 miles SSE 4.6 mph - N/A   Mostly Cloudy
2:49 PM 42.8°F 41.0°F 93% 30.11 in 5.0 miles SE 3.5 mph - N/A   Scattered Clouds
2:53 PM 43.0°F 41.0°F 93% 30.11 in 5.0 miles Variable 3.5 mph - N/A   Scattered Clouds
3:53 PM 42.1°F 39.9°F 92% 30.11 in 5.0 miles ESE 3.5 mph - N/A   Scattered Clouds
4:53 PM 39.9°F 39.0°F 97% 30.11 in 7.0 miles East 4.6 mph - N/A   Clear
5:53 PM 39.0°F 37.9°F 96% 30.09 in 7.0 miles Calm Calm - N/A   Clear
6:53 PM 39.0°F 37.0°F 93% 30.05 in 7.0 miles East 6.9 mph - N/A   Clear
7:53 PM 37.9°F 36.0°F 93% 30.05 in 7.0 miles East 6.9 mph - N/A   Clear
8:53 PM 37.9°F 36.0°F 93% 30.02 in 7.0 miles East 8.1 mph - N/A   Mostly Cloudy
9:53 PM 37.9°F 36.0°F 93% 30.01 in 6.0 miles East 5.8 mph - N/A   Overcast
10:53 PM 37.9°F 36.0°F 93% 29.99 in 6.0 miles East 6.9 mph - 0.00 in Rain Light Rain
11:20 PM 37.4°F 35.6°F 93% 29.97 in 3.0 miles East 6.9 mph - 0.01 in Rain Light Rain
11:39 PM 37.4°F 35.6°F 93% 29.95 in 5.0 miles East 9.2 mph - 0.03 in Rain Light Rain
11:53 PM 37.9°F 36.0°F 93% 29.95 in 5.0 miles East 6.9 mph - 0.03 in Rain Light Rain
Moon Phase
Dec. 24 Dec. 28 Jan. 04 Jan. 11 Jan. 18
Sunrise:08:06 AM (PST) Moon Rise:02:05 PM (PST)12/24
Sunset:04:29 PM (PST) Moon Set:04:44 AM (PST)12/24

Copyright © 2014 The Weather Underground, Inc.